444  
AXUS43 KGID 211602  
MISGRI  
 
GID CWA HOURLY WEATHER ROUNDUP  
NATIONAL WEATHER SERVICE HASTINGS NE  
1000 AM CST MON JAN 21 2019  
 
NOTE: "FAIR" INDICATES FEW OR NO CLOUDS BELOW 12,000 FEET WITH NO  
SIGNIFICANT WEATHER AND/OR OBSTRUCTIONS TO VISIBILITY.  
   
..SOUTH CENTRAL NEBRASKA
 
 
 
CITY SKY/WX TMP DP RH WIND PRES REMARKS  
GRAND ISLAND CLOUDY 16 13 88 SE15G23 29.90F WCI 1  
KEARNEY CLOUDY 17 14 88 SE14 29.87R WCI 3  
HASTINGS CLOUDY 19 14 81 SE16G25 29.88F HAZE WCI 4  
ORD LGT SNOW 16 12 84 SE12G22 29.87F FOG WCI 3  
YORK CLOUDY 16 14 93 MISG 29.93F  
AURORA CLOUDY 15 14 94 SE21G28 29.90F WCI -2  
LEXINGTON CLOUDY 20 17 90 SE7 29.83S FOG WCI 11  
HOLDREGE CLOUDY 18 18 99 SE9 29.83S WCI 7  
HEBRON CLOUDY 20 16 85 SE15G23 29.94F WCI 6  
   
..NEBRASKA PANHANDLE
 
 
 
CITY SKY/WX TMP DP RH WIND PRES REMARKS  
CHADRON CLOUDY 33 28 81 S14 29.55F WCI 23  
ALLIANCE FOG 25 25 100 S20 29.59S VSB 1/2 WCI 11  
SCOTTSBLUFF CLOUDY 29 29 100 SE14 29.57F FOG WCI 18  
SIDNEY FOG 26 26 100 S14 29.60F VSB 1/4 WCI 14  
   
..WESTERN AND NORTH CENTRAL NEBRASKA
 
 
 
CITY SKY/WX TMP DP RH WIND PRES REMARKS  
VALENTINE CLOUDY 21 18 88 S20 29.71F WCI 6  
AINSWORTH CLOUDY 17 16 96 CALM 29.76F  
ONEILL LGT SNOW 15 13 89 S8 29.88F WCI 5  
BROKEN BOW CLOUDY 18 15 88 SE17 29.81F WCI 3  
IMPERIAL FOG 21 17 84 SE16 29.69F VSB 1/2 WCI 7  
NORTH PLATTE CLOUDY 22 17 81 S9G17 29.76F HAZE WCI 12  
MCCOOK FOG 20 19 96 SE10 29.77S VSB 1/2 WCI 9  
   
..EASTERN NEBRASKA
 
 
 
CITY SKY/WX TMP DP RH WIND PRES REMARKS  
NORFOLK LGT SNOW 14 10 84 SE18G26 29.97F FOG WCI -3  
SO SIOUX CITY MOSUNNY 15 6 67 SE25G38 30.07F WCI -4  
TEKAMAH MOSUNNY 15 8 73 SE24G35 30.10F WCI -4  
COLUMBUS LGT SNOW 14 10 84 SE14G23 30.00F FOG WCI -1  
ALBION LGT SNOW 15 12 87 SE17G23 29.93S WCI -1  
OMAHA EPPLEY CLOUDY 14 7 73 SE25G33 30.11F WCI -5  
OFFUTT AFB CLOUDY 13 13 100 E22G28 30.10F WCI -6  
MILLARD LGT SNOW 15 9 76 SE15G24 30.09F WCI -1  
LINCOLN LGT SNOW 14 10 84 SE22G29 30.05F FOG WCI -4  
NEBRASKA CITY LGT SNOW 14 9 80 SE18 30.09F WCI -3  
BEATRICE CLOUDY 18 15 86 SE20G26 30.00F WCI 2  
FALLS CITY CLOUDY 16 12 84 SE17G26 30.12F WCI 0  
   
..NORTHERN KANSAS
 
 
 
CITY SKY/WX TMP DP RH WIND PRES REMARKS  
GOODLAND FOG 25 25 100 SE10 29.65R VSB 1/4 WCI 15  
HILL CITY CLOUDY 25 24 96 SE10 29.78F WCI 15  
PHILLIPSBURG CLOUDY 23 21 93 E13 29.83F WCI 11  
SMITH CENTER CLOUDY 20 18 92 SE22G30 29.84F WCI 3  
HAYS CLOUDY 27 25 92 SE16 29.79F WCI 15  
RUSSELL CLOUDY 26 25 96 SE20G29 29.80F WCI 12  
CONCORDIA CLOUDY 22 18 85 SE21G28 29.92F WCI 6  
SALINA CLOUDY 28 22 78 SE20G30 29.92F WCI 15  
TOPEKA CLOUDY 24 17 74 E18 30.10F WCI 10  
 
CLICK HERE TO GO TO PREVIOUS BULLETINS.

The Nexlab NE Page
The Nexlab KS Page Main Text Page